Miscellaneous Local Product
Issued by NWS Hastings, NE

Home | Current Version | Previous Version | Graphics & Text | Print | Product List | Glossary On
Versions: 1 2 3 4 5 6 7 8 9 10 11 12 13 14 15 16 17 18 19 20 21 22 23 24 25 26 27 28 29 30 31 32 33 34 35 36 37 38 39 40 41 42 43 44 45 46 47 48 49 50
000
AXUS43 KGID 020302
MISGRI

GID CWA HOURLY WEATHER ROUNDUP
NATIONAL WEATHER SERVICE HASTINGS NE
1000 PM CDT TUE SEP 01 2015

NOTE: "FAIR" INDICATES FEW OR NO CLOUDS BELOW 12,000 FEET WITH NO
SIGNIFICANT WEATHER AND/OR OBSTRUCTIONS TO VISIBILITY.

...SOUTH CENTRAL NEBRASKA...

CITY           SKY/WX    TMP DP  RH WIND       PRES   REMARKS
GRAND ISLAND   CLEAR     78  66  66 S9        29.90R
HASTINGS       PTCLDY    81  64  56 SE9       29.90R
KEARNEY        CLEAR     73  63  68 E7        29.91R
ORD            CLEAR     74  64  71 CALM      29.88R
YORK           CLEAR     77  66  69 S9        29.90R
AURORA         CLEAR     77  66  67 S7        29.90R
LEXINGTON      CLEAR     72  66  80 SE5       29.91R
HOLDREGE       CLEAR     74  64  72 SE9       29.90S
HEBRON         PTCLDY    82  61  48 S14G25    29.91R

...NEBRASKA PANHANDLE...

CITY           SKY/WX    TMP DP  RH WIND       PRES   REMARKS
CHADRON        CLEAR     69  44  40 E3        29.86R
ALLIANCE       CLEAR     70  45  40 S9        29.93R
SCOTTSBLUFF    PTCLDY    68  55  63 E6        29.93R
SIDNEY         CLEAR     72  44  36 S12       29.99R

...WESTERN AND NORTH CENTRAL NEBRASKA...

CITY           SKY/WX    TMP DP  RH WIND       PRES   REMARKS
VALENTINE      CLEAR     75  60  59 E5        29.86R
AINSWORTH      CLEAR     73  62  68 S7        29.88R
ONEILL         CLEAR     77  67  70 SE7       29.88R
BROKEN BOW     CLEAR     73  65  75 SE3       29.90R
IMPERIAL       CLEAR     71  56  58 SE7       29.94R
NORTH PLATTE   CLEAR     69  66  90 E7        29.91R
MCCOOK         PTCLDY    78  61  55 SE5       29.92R

...EASTERN NEBRASKA...

CITY           SKY/WX    TMP DP  RH WIND       PRES   REMARKS
NORFOLK        CLEAR     75  67  76 SE7       29.89R
SO SIOUX CITY  PTCLDY    77  70  79 SE10      29.88R
TEKAMAH        CLEAR     76  70  82 SE10      29.89R
COLUMBUS       CLEAR     77  63  61 S8        29.88R
ALBION         CLEAR     75  67  75 SE6       29.89R
OMAHA EPPLEY   CLOUDY    80  68  66 SE14      29.91R
OFFUTT AFB     PTCLDY    80  67  66 SE14      29.92R
MILLARD        PTCLDY    79  69  71 SE9       29.91R
LINCOLN        MOCLDY    81  65  58 S17G25    29.90R
NEBRASKA CITY  CLOUDY    79  61  53 S15       29.95R
BEATRICE       CLOUDY    81  65  59 S14       29.92R
FALLS CITY     PTCLDY    78  68  71 S10       29.96R

...NORTHERN KANSAS...

CITY           SKY/WX    TMP DP  RH WIND       PRES   REMARKS
GOODLAND       MOCLDY    74  59  59 S10       29.99R
HILL CITY      MOCLDY    83  58  42 SW5       29.91R
NORTON         CLEAR     77  54  44 S6        29.91R
PHILLIPSBURG   CLEAR     82  57  42 CALM      29.89R
SMITH CENTER   PTCLDY    81  61  50 SE12      29.91R
HAYS           MOCLDY    84  57  39 S13       29.92R
RUSSELL        PTCLDY    84  60  44 S17G23    29.91R
CONCORDIA      CLEAR     81  64  56 S21G26    29.93R
SALINA         CLEAR     83  66  56 S15       29.94R
TOPEKA         CLEAR     78  67  68 SE10      29.99R



USA.gov is the U.S. government's official web portal to all federal, state and local government web resources and services.